This demonstration page uses our WeatherBlox Daily Observations layout. Learn more.

Left ArrowRight Arrow

41.55636, -103.73856

Hourly Observations for July 26, 2015

Temp ( °F °C ) Dew Point ( °F °C ) Humidity (%) Winds ( mph kmh ) Pressure ( in mb ) Visibility ( mi km ) Precip ( " mm )
12:53 am 00:53 Clear 65 18.3 57 13.9 76 76 E 3 6 29.83 1010 10 16.0934 0 0
1:53 am 01:53 Clear 65 18.3 56 13.3 73 73 undefined N/A 29.83 1010 10 16.0934 0 0
2:53 am 02:53 Clear 66 18.9 58 14.4 75 75 undefined N/A 29.82 1010 10 16.0934 0 0
3:53 am 03:53 Clear 65 18.3 59 15 81 81 E 5 7 29.82 1010 10 16.0934 0 0
4:53 am 04:53 Clear 65 18.3 59 15 81 81 E 5 7 29.82 1010 10 16.0934 0 0
5:53 am 05:53 Sunny 65 18.3 61 16.1 87 87 E 5 7 29.82 1010 10 16.0934 0 0
6:53 am 06:53 Sunny 68 20 63 17.2 84 84 ESE 5 7 29.84 1011 10 16.0934 0 0
7:53 am 07:53 Sunny 71 21.7 65 18.3 81 81 SSE 5 7 29.85 1011 9 14.48406 0 0
8:53 am 08:53 Sunny 76 24.4 66 18.9 72 72 SSE 9 15 29.85 1011 10 16.0934 0 0
9:53 am 09:53 Sunny 82 27.8 65 18.3 56 56 SE 6 9 29.83 1010 10 16.0934 0 0
10:53 am 10:53 Sunny 87 30.6 59 15 39 39 SSW 3 6 29.82 1010 10 16.0934 0 0
11:53 am 11:53 Sunny 91 32.8 48 8.9 23 23 S 5 7 29.81 1010 10 16.0934 0 0
12:53 pm 12:53 Sunny 93 33.9 58 14.4 31 31 NNW 7 11 29.78 1009 10 16.0934 0 0
1:53 pm 13:53 Sunny 96 35.6 41 5 15 15 VRB 3 6 29.76 1008 10 16.0934 0 0
2:30 pm 14:30 Sunny 90 32 61 16 38 38 ESE 16 26 29.59 1002 10 16.0934 0 0
2:53 pm 14:53 Sunny 90 32.2 60 15.6 37 37 ESE 14 22 29.76 1008 10 16.0934 0 0
3:53 pm 15:53 Sunny 88 31.1 60 15.6 39 39 ESE 21 33 29.77 1008 10 16.0934 0 0
4:53 pm 16:53 Sunny 85 29.4 60 15.6 43 43 SE 23 37 29.8 1009 10 16.0934 0 0
5:53 pm 17:53 Sunny 82 27.8 57 13.9 42 42 ESE 24 39 29.79 1009 10 16.0934 0 0
6:53 pm 18:53 Sunny 79 26.1 59 15 50 50 SE 14 22 29.78 1008 10 16.0934 0 0
7:53 pm 19:53 Sunny 77 25 58 14.4 52 52 SE 15 24 29.78 1008 10 16.0934 0 0
8:53 pm 20:53 Clear 72 22.2 59 15 64 64 ESE 13 20 29.8 1009 10 16.0934 0 0
9:53 pm 21:53 Clear 69 20.6 59 15 70 70 undefined N/A 29.8 1009 10 16.0934 0 0
10:53 pm 22:53 Clear 67 19.4 59 15 76 76 ESE 12 19 29.81 1009 10 16.0934 0 0
11:53 pm 23:53 Clear 67 19.4 60 15.6 79 79 ESE 10 17 29.8 1009 10 16.0934 0 0

Powered by AerisWeather